Theta_e
335 341 347 353 353 353 352 352 351 350 349 347 345 345 344 343 346 346 344 343 341 340 340 340 343 341 340 340 342 340 340 343
335 339 344 353 354 353 353 352 352 351 350 349 348 346 346 347 345 345 343 342 342 341 340 340 341 343 344 343 342 342 340 341
337 340 344 351 354 353 353 353 352 351 351 350 349 349 348 348 346 344 343 342 341 341 341 340 341 342 342 343 343 342 341 340
340 340 345 347 352 353 353 352 352 352 351 351 350 350 350 348 346 342 339 338 338 338 338 339 339 340 341 340 340 341 341 341
338 340 343 347 348 348 349 353 353 352 352 351 350 350 350 345 341 338 339 337 337 336 337 337 338 340 340 340 340 339 340 341
334 338 340 341 346 347 347 348 353 351 351 351 348 347 344 339 337 337 337 337 336 335 335 335 336 337 339 339 338 338 339 338
332 335 338 341 344 346 345 348 348 346 344 345 343 342 340 339 339 336 336 335 335 334 334 335 335 337 337 338 335 338 336 337
331 334 336 341 344 345 343 344 342 341 341 340 342 342 340 337 338 337 336 335 335 333 333 333 333 333 333 336 335 336 336 337
328 332 335 340 342 344 341 338 336 334 335 335 337 339 338 336 336 335 333 333 334 332 333 333 332 333 335 336 336 336 336 336
326 328 331 337 340 339 337 334 334 334 333 335 335 336 335 334 335 335 334 332 332 332 331 331 331 332 333 336 336 335 336 336
326 325 330 334 337 335 334 336 335 336 335 334 334 334 336 334 334 333 332 332 332 333 332 331 330 331 332 334 334 336 335 336
325 325 328 332 334 334 334 335 336 334 334 333 334 336 336 336 336 335 333 333 333 333 333 332 332 332 332 333 333 334 335 335
324 324 328 328 331 333 335 335 334 334 334 334 335 336 337 337 337 335 333 333 332 333 332 330 330 328 330 331 332 333 333 333
324 327 327 330 330 333 335 334 335 335 334 335 335 336 337 337 336 335 334 331 333 331 330 330 330 329 329 330 331 332 333 332
325 329 330 331 333 334 333 333 334 334 334 335 335 336 336 336 335 335 332 333 332 330 329 329 330 329 330 331 330 330 333 335
326 328 330 331 333 332 330 330 331 331 334 334 335 336 335 335 335 334 332 331 330 329 330 330 328 327 329 331 327 324 326 329
325 327 329 332 332 332 332 333 335 336 335 334 335 335 335 335 336 334 331 327 330 329 330 328 328 326 328 329 326 327 319 326
325 327 330 331 332 332 335 334 334 334 332 332 333 333 335 333 334 333 330 329 330 331 328 328 328 329 326 328 331 326 317 318
325 329 331 331 332 334 335 334 333 329 328 331 331 332 332 332 332 333 333 332 332 330 330 328 329 330 330 326 327 332 332 329
Wind_Speed
17 17 19 23 22 20 19 18 18 17 16 15 15 14 14 14 13 12 13 14 14 13 13 14 15 12 11 10 9 8 9 5
15 16 17 22 21 21 19 18 17 16 16 15 14 15 15 15 14 13 14 15 16 15 14 14 14 12 12 11 11 10 9 7
16 17 16 21 20 19 19 18 17 16 15 14 14 14 14 13 13 13 14 14 14 16 15 15 14 13 13 13 11 11 9 10
13 15 14 17 19 20 18 17 16 14 14 13 13 14 13 12 11 10 10 11 13 14 14 14 15 15 13 11 12 12 11 11
12 14 14 15 16 15 15 17 16 14 13 13 13 14 12 11 11 10 9 10 12 13 14 15 16 16 14 13 12 12 12 13
11 13 14 15 14 14 13 13 14 15 14 13 14 13 9 8 9 10 10 10 11 12 13 14 15 15 14 15 14 14 13 7
17 17 15 15 15 14 10 10 11 9 8 9 9 9 8 8 8 9 10 12 13 13 13 14 15 14 13 9 8 13 9 9
19 14 16 13 12 13 10 7 5 5 5 6 8 7 7 7 7 7 6 6 7 7 6 6 8 7 9 7 7 7 8 8
19 17 14 15 12 11 8 7 7 5 5 5 5 7 6 6 8 7 6 7 6 5 6 6 5 6 8 9 9 8 9 8
19 14 13 14 13 10 9 7 6 6 5 4 4 6 6 7 8 8 7 7 7 6 6 6 6 6 6 8 8 8 9 9
15 14 14 15 13 12 9 9 6 5 5 4 5 6 8 7 7 8 8 8 8 7 6 6 5 5 6 6 7 8 8 7
14 12 14 14 14 13 11 8 6 5 4 5 6 8 9 9 9 9 8 8 8 7 7 6 5 5 5 5 6 6 6 6
11 14 15 14 16 15 11 8 5 4 4 5 7 7 9 9 9 9 8 7 5 6 6 5 5 5 6 6 6 5 4 5
16 17 17 15 16 14 11 7 5 4 5 6 6 6 8 8 9 8 7 5 6 5 5 5 5 6 5 5 5 4 3 4
16 16 17 16 15 13 7 5 3 3 5 6 6 7 8 7 8 7 6 6 6 6 5 5 6 5 5 5 5 3 2 3
14 17 18 18 13 9 7 4 3 5 4 5 5 7 7 6 7 6 5 6 6 6 7 7 5 7 4 5 5 4 2 2
13 15 16 15 14 9 6 4 2 2 3 3 3 4 5 6 5 6 6 5 7 5 6 7 8 5 3 6 4 6 5 4
14 16 15 14 13 9 7 4 3 2 3 3 2 1 2 3 4 6 7 7 7 6 6 7 9 9 6 5 6 3 4 3
15 14 13 12 12 9 8 5 5 3 1 1 2 3 3 3 3 5 6 7 7 5 5 7 8 7 6 7 5 3 2 5
Wind_Direction
177 181 184 187 187 191 193 195 196 200 203 210 217 224 229 237 238 245 249 252 252 250 252 258 253 261 264 272 256 243 243 257
181 185 189 192 189 191 195 198 199 202 206 210 219 227 234 240 241 248 257 258 258 256 256 259 259 261 267 264 264 251 232 238
182 186 195 192 192 191 194 197 201 204 210 213 220 231 240 244 242 251 256 262 263 264 263 262 260 262 261 266 263 259 251 229
192 187 192 194 196 193 194 197 200 206 213 218 225 234 240 245 248 251 261 269 272 272 272 272 268 267 265 259 256 250 244 235
193 197 198 198 196 200 198 195 197 205 211 218 227 236 237 242 246 253 262 259 271 274 274 272 269 261 261 256 246 250 248 242
204 200 204 199 197 200 203 201 198 209 216 222 232 232 229 241 247 251 258 270 264 270 271 270 269 269 265 257 251 236 240 236
208 203 201 201 198 194 196 202 203 214 223 225 227 232 234 240 242 245 256 262 269 271 267 265 270 285 284 250 229 226 230 229
218 208 198 194 195 191 190 192 198 207 215 225 228 229 234 240 241 238 249 253 253 253 263 262 269 268 280 263 235 227 226 221
218 216 186 186 186 189 184 186 191 201 214 221 223 227 233 234 236 240 242 253 251 257 261 258 258 260 265 254 243 232 222 218
228 214 191 178 176 176 180 181 195 210 213 224 229 234 234 239 239 240 242 244 244 250 251 254 258 257 254 245 231 227 217 213
221 202 181 178 172 169 180 185 196 205 213 221 232 236 230 240 240 247 243 236 239 236 238 245 245 249 245 241 225 215 216 217
217 183 176 174 171 171 178 190 201 204 215 229 239 237 233 232 238 241 237 235 233 232 225 231 237 235 235 232 224 207 208 219
186 176 167 176 174 170 176 186 198 202 223 239 244 243 237 234 237 238 239 239 226 219 223 226 233 227 230 211 209 188 204 229
175 167 171 172 174 169 170 174 193 215 230 238 242 238 236 233 235 235 238 232 215 212 217 226 220 230 211 202 191 182 192 220
172 165 161 167 165 163 156 158 169 234 246 242 239 241 232 228 232 227 226 223 212 213 210 214 223 207 213 192 170 164 173 206
169 161 160 156 158 153 153 167 195 229 224 231 236 244 231 232 231 217 226 211 209 216 212 207 205 199 189 169 138 120 113 130
161 157 152 153 157 160 149 158 174 188 234 268 265 253 231 240 243 223 215 197 204 204 199 195 201 184 170 180 182 166 162 131
157 155 152 154 153 155 152 140 144 201 222 230 226 235 231 275 241 224 197 196 199 208 198 196 201 193 164 181 200 169 165 153
155 150 149 148 150 150 157 154 189 201 201 238 280 267 273 267 261 204 203 193 199 204 191 190 194 200 184 174 185 193 114 137